Tracking 22779 objects as of 14-Apr-2021
HD Live streaming from Space Station
objects crossing your sky now

INTELSAT 2 (PAS 2)

Track INTELSAT 2 (PAS 2) now!
INTELSAT 2 (PAS 2) is classified as:


NORAD ID: 23175
Int'l Code: 1994-040A
Perigee: 36,058.2 km
Apogee: 36,141.5 km
Inclination: 9.0 °
Period: 1,451.8 minutes
Semi major axis: 42470 km
RCS: 6.3096 m2 (large)
Launch date: July 8, 1994
Source: United States (US)
Launch site: FRENCH GUIANA (FRGUI)

12 Ku-band; Asia-Pacific.
aabbcc
Your satellite tracking list
Your tracking list is empty




NASA's NSSDC Master Catalog

Two Line Element Set (TLE):
1 23175U 94040A   21101.89187737  .00000059  00000-0  00000-0 0  9994
2 23175   8.9928  47.5700 0009803 352.6740 191.9737  0.99189605 96870
Source of the keplerian elements: AFSPC